Winnemucca, NV

5:42 PM PDT on May 26, 2017 (GMT -0700)
Winnemucca Municipal

Weather History for KWMC - June, 2013

Change the Weather History Date:

Tuesday, June 4, 2013

  Actual Average Record
Temperature  
Mean Temperature 61 °F 60 °F  
Max Temperature 86 °F 78 °F 99 °F (2000)
Min Temperature 36 °F 42 °F 23 °F (2001)
Degree Days  
Heating Degree Days 4 6  
Month to date heating degree days 6 25  
Since 1 June heating degree days 6 25  
Since 1 July heating degree days 6346 6225  
Cooling Degree Days 0 1  
Month to date cooling degree days 1 4  
Year to date cooling degree days 2 15  
Since 1 June cooling degree days 1 4  
Growing Degree Days 11 (Base 50)    
Moisture  
Dew Point 25 °F    
Average Humidity 31    
Maximum Humidity 52    
Minimum Humidity 10    
Precipitation  
Precipitation 0.00 in 0.03 in 0.77 in (1945)
Month to date precipitation 0.00 0.11  
Year to date precipitation 1.83 4.48  
Snow  
Snow 0.00 in 0.00 in 0.00 in (1877)
Month to date snowfall 0.0 0.0  
Since 1 June snowfall 0.0 0.0  
Since 1 July snowfall 21.9 20.9  
Snow Depth 0.00 in    
Sea Level Pressure  
Sea Level Pressure 29.94 in    
Wind  
Wind Speed 7 mph (North)    
Max Wind Speed 17 mph    
Max Gust Speed 26 mph    
Visibility 10 miles    
Events      
T = Trace of Precipitation, MM = Missing Value Source: NWS Daily Summary

Daily Weather History Graph

Daily Weather History Graph

Search for Another Location

Airport or City:

Trip Planner

Search our weather history database for the weather conditions in past years. The results will help you decide how hot, cold, wet, or windy it might be!

Date:

Astronomy

Jun. 04, 2013 Rise Set
Actual Time 5:20 AM PDT 8:19 PM PDT
Civil Twilight 4:47 AM PDT 8:52 PM PDT
Nautical Twilight 4:05 AM PDT 9:34 PM PDT
Astronomical Twilight 3:16 AM PDT 10:23 PM PDT
Moon 2:54 AM PDT (6/4) 4:51 PM PDT (6/4)
Length of Visible Light 16h 04m
Length of Day
14h 58m
Waning Crescent, 13% of the Moon is Illuminated
Jun 4
Waning Crescent
Jun 8
New
Jun 16
First Quarter
Jun 23
Full
Jun 29
Last Quarter

Hourly Weather History & Observations

Time (PDT) Temp. Windchill Dew Point Humidity Pressure Visibility Wind Dir Wind Speed Gust Speed Precip Events Conditions
12:56 AM 46.0 °F 44.8 °F 19.0 °F 34% 29.92 in 10.0 mi SE 3.5 mph - N/A   Clear
1:56 AM 43.0 °F - 21.9 °F 43% 29.93 in 10.0 mi Calm Calm - N/A   Clear
2:56 AM 48.9 °F - 23.0 °F 36% 29.92 in 10.0 mi Calm Calm - N/A   Clear
3:56 AM 41.0 °F 38.0 °F 19.9 °F 43% 29.94 in 10.0 mi NW 4.6 mph - N/A   Clear
4:56 AM 37.0 °F 34.5 °F 21.9 °F 54% 29.95 in 10.0 mi South 3.5 mph - N/A   Clear
6:56 AM 51.1 °F - 27.0 °F 39% 29.96 in 10.0 mi Calm Calm - N/A   Clear
7:56 AM 62.1 °F - 27.0 °F 26% 29.95 in 10.0 mi Calm Calm - N/A   Clear
8:56 AM 66.9 °F - 27.0 °F 22% 29.97 in 10.0 mi Calm Calm - N/A   Clear
9:56 AM 73.9 °F - 26.1 °F 17% 29.98 in 10.0 mi North 4.6 mph - N/A   Clear
10:56 AM 75.9 °F - 27.0 °F 16% 29.96 in 10.0 mi Variable 4.6 mph - N/A   Clear
11:56 AM 79.0 °F - 27.0 °F 15% 29.95 in 10.0 mi West 5.8 mph - N/A   Clear
12:56 PM 81.0 °F - 24.1 °F 12% 29.94 in 10.0 mi NNW 9.2 mph - N/A   Clear
1:56 PM 84.9 °F - 27.0 °F 12% 29.93 in 10.0 mi NW 13.8 mph 19.6 mph N/A   Clear
2:56 PM 84.0 °F - 23.0 °F 11% 29.91 in 10.0 mi North 9.2 mph 20.7 mph N/A   Clear
3:56 PM 84.0 °F - 26.1 °F 12% 29.92 in 10.0 mi North 12.7 mph 20.7 mph N/A   Clear
4:56 PM 84.9 °F - 25.0 °F 11% 29.92 in 10.0 mi North 9.2 mph 17.3 mph N/A   Clear
5:56 PM 84.0 °F - 26.1 °F 12% 29.91 in 10.0 mi North 13.8 mph 19.6 mph N/A   Clear
6:56 PM 82.0 °F - 25.0 °F 12% 29.90 in 10.0 mi North 10.4 mph 18.4 mph N/A   Clear
7:56 PM 77.0 °F - 26.1 °F 15% 29.90 in 10.0 mi North 8.1 mph - N/A   Clear
8:56 PM 71.1 °F - 26.1 °F 19% 29.92 in 10.0 mi NE 6.9 mph - N/A   Clear
9:56 PM 71.1 °F - 24.1 °F 17% 29.93 in 10.0 mi NE 11.5 mph - N/A   Clear
10:56 PM 68.0 °F - 24.1 °F 19% 29.95 in 10.0 mi NE 11.5 mph - N/A   Clear
11:56 PM 64.9 °F - 23.0 °F 20% 29.96 in 10.0 mi NE 11.5 mph - N/A   Clear